DW4300 Weather Reports


Display with metric or nautical units.
time (UTC)temp
F
wind
direction
speed
MPH
gust
MPH
rain 1hr
in
rain 24hr
in
rain mn
in
humidity
%
barometer
mb
20190124121745 21 230 1.0 3.0 0.00 0.15 0.00 90 1013.3
20190124121244 21 233 2.0 3.0 0.00 0.15 0.00 90 1013.4
20190124120743 21 234 2.0 3.0 0.00 0.15 0.00 90 1013.3
20190124115743 21 235 2.0 3.0 0.00 0.16 0.00 90 1013.1
20190124115244 21 235 1.0 2.0 0.00 0.16 0.00 89 1013.0
20190124114745 21 235 1.0 2.0 0.00 0.17 0.00 89 1013.1
20190124114243 21 235 1.0 3.0 0.00 0.17 0.00 89 1013.1
20190124113743 21 235 1.0 3.0 0.00 0.17 0.00 89 1013.2
20190124113244 21 235 1.0 2.0 0.00 0.18 0.00 89 1013.2
20190124112744 21 235 1.0 2.0 0.00 0.18 0.00 89 1013.1
20190124112243 22 235 1.0 3.0 0.00 0.18 0.00 89 1013.1
20190124111744 22 235 1.0 3.0 0.00 0.18 0.00 89 1013.1
20190124111243 22 235 0.0 2.0 0.00 0.18 0.00 89 1013.0
20190124110743 22 235 0.0 2.0 0.00 0.19 0.00 89 1012.9
20190124110244 22 235 1.0 3.0 0.00 0.20 0.00 88 1013.0
20190124105743 22 240 1.0 3.0 0.00 0.20 0.00 88 1013.1
20190124105243 22 250 1.0 3.0 0.00 0.20 0.00 89 1013.2
20190124104745 22 261 1.0 3.0 0.00 0.21 0.00 88 1013.0
20190124104243 22 261 1.0 3.0 0.00 0.21 0.00 88 1012.9
20190124103743 22 261 0.0 2.0 0.00 0.21 0.00 88 1012.8
20190124103245 22 261 0.0 2.0 0.00 0.22 0.00 88 1012.9
20190124102743 22 262 0.0 2.0 0.00 0.22 0.00 88 1012.9
20190124102243 22 263 1.0 3.0 0.00 0.22 0.00 88 1013.0
20190124101745 22 263 1.0 3.0 0.00 0.22 0.00 88 1013.1
20190124101243 22 264 1.0 3.0 0.00 0.23 0.00 88 1013.1
20190124100743 22 265 0.0 3.0 0.00 0.23 0.00 88 1013.2
20190124100245 22 275 0.0 4.0 0.00 0.24 0.00 88 1013.2
20190124095744 22 286 1.0 4.0 0.00 0.26 0.00 88 1013.2
20190124095243 22 291 1.0 5.0 0.00 0.27 0.00 88 1013.3
20190124094745 22 288 1.0 5.0 0.00 0.28 0.00 88 1013.3
20190124094243 22 287 1.0 6.0 0.00 0.29 0.00 88 1013.3
20190124093743 22 283 2.0 6.0 0.00 0.30 0.00 88 1013.5
20190124093245 22 276 2.0 7.0 0.00 0.31 0.00 88 1013.5
20190124092743 22 265 3.0 8.0 0.00 0.34 0.00 88 1013.5
20190124092243 22 257 3.0 8.0 0.00 0.36 0.00 88 1013.7
20190124091744 22 257 2.0 8.0 0.00 0.39 0.00 88 1013.8
20190124091243 22 260 2.0 6.0 0.00 0.41 0.00 88 1013.7
20190124090743 22 262 2.0 6.0 0.00 0.43 0.00 88 1013.6
20190124090245 22 266 1.0 4.0 0.00 0.45 0.00 88 1013.4
20190124085743 22 284 1.0 7.0 0.00 0.49 0.00 88 1013.4
20190124085243 22 274 2.0 7.0 0.00 0.52 0.00 88 1013.3
20190124084745 22 258 2.0 5.0 0.00 0.55 0.00 88 1013.3
20190124084243 22 257 1.0 5.0 0.00 0.56 0.00 88 1013.2
20190124083743 22 270 1.0 8.0 0.00 0.59 0.00 88 1013.1
20190124083245 22 272 2.0 8.0 0.00 0.60 0.00 87 1013.1
20190124082742 22 274 2.0 5.0 0.00 0.62 0.00 87 1013.0
20190124082243 22 277 1.0 4.0 0.00 0.64 0.00 88 1012.9
20190124081745 22 290 1.0 4.0 0.00 0.65 0.00 87 1012.9
20190124081243 22 311 1.0 4.0 0.00 0.67 0.00 87 1012.8
20190124080743 22 306 1.0 4.0 0.00 0.70 0.00 87 1012.7
20190124080245 22 292 1.0 4.0 0.00 0.71 0.00 87 1012.6
20190124075743 22 299 1.0 4.0 0.00 0.75 0.00 87 1012.5
20190124075243 22 303 1.0 4.0 0.00 0.78 0.00 87 1012.5
20190124074745 22 305 1.0 4.0 0.00 0.82 0.00 87 1012.5
20190124074243 22 305 1.0 4.0 0.00 0.85 0.00 87 1012.5
20190124073743 22 295 1.0 7.0 0.00 0.88 0.00 87 1012.5
20190124073244 22 296 2.0 7.0 0.00 0.91 0.00 87 1012.5
20190124072743 22 303 2.0 7.0 0.00 0.94 0.00 87 1012.6
20190124072243 22 300 3.0 8.0 0.00 0.99 0.00 87 1012.6
20190124071745 22 297 2.0 8.0 0.00 1.00 0.00 87 1012.6
20190124071243 22 301 2.0 8.0 0.00 1.01 0.00 87 1012.4
20190124070742 22 298 2.0 5.0 0.00 1.02 0.00 87 1012.6
20190124070245 23 292 2.0 8.0 0.00 1.03 0.00 87 1012.7
20190124065743 23 307 2.0 8.0 0.00 1.06 0.00 87 1012.8
20190124065243 23 313 3.0 7.0 0.00 1.09 0.00 87 1012.7
20190124064744 23 307 4.0 8.0 0.00 1.11 0.00 87 1012.7
20190124064243 23 306 3.0 8.0 0.00 1.13 0.00 86 1012.7
20190124063743 23 305 3.0 8.0 0.00 1.15 0.00 86 1012.7
20190124063245 23 304 3.0 8.0 0.00 1.16 0.00 86 1012.8
20190124062742 23 299 3.0 8.0 0.00 1.17 0.00 86 1012.8
20190124062243 23 298 4.0 9.0 0.00 1.18 0.00 86 1012.8
20190124061745 23 302 4.0 10.0 0.00 1.20 0.00 86 1012.9
20190124061242 23 306 3.0 10.0 0.00 1.22 0.00 86 1012.7
20190124060743 23 306 4.0 10.0 0.00 1.25 0.00 86 1012.8
20190124060245 23 308 4.0 10.0 0.00 1.27 0.00 86 1012.9
20190124055743 23 306 3.0 8.0 0.00 1.28 1.27 86 1012.9
20190124055242 23 297 4.0 9.0 0.00 1.29 1.27 86 1013.1
20190124054745 23 295 4.0 10.0 0.00 1.30 1.27 86 1013.1
20190124054243 23 293 4.0 13.0 0.00 1.32 1.27 85 1013.2
20190124053743 23 293 4.0 13.0 0.00 1.35 1.27 86 1013.2
20190124053244 23 301 4.0 10.0 0.00 1.37 1.27 86 1013.3
20190124052743 23 299 4.0 9.0 0.00 1.38 1.27 86 1013.5
20190124052243 24 299 4.0 11.0 0.00 1.38 1.27 86 1013.5
20190124051745 24 298 3.0 11.0 0.00 1.38 1.27 86 1013.4
20190124051243 24 300 4.0 9.0 0.00 1.39 1.27 86 1013.4
20190124050743 24 308 5.0 10.0 0.00 1.40 1.27 85 1013.2
20190124050245 24 307 5.0 17.0 0.00 1.40 1.27 85 1013.2
20190124045743 24 305 5.0 17.0 0.00 1.42 1.27 85 1013.2
20190124045243 24 302 5.0 14.0 0.00 1.44 1.27 85 1013.3
20190124044745 24 302 4.0 14.0 0.00 1.45 1.27 85 1013.2
20190124044243 24 305 4.0 9.0 0.00 1.47 1.27 85 1013.1
20190124043743 24 310 4.0 9.0 0.00 1.47 1.27 85 1013.0
20190124043244 24 316 5.0 11.0 0.00 1.48 1.27 85 1012.9
20190124042743 24 313 6.0 11.0 0.00 1.48 1.27 84 1012.8
20190124042242 24 308 6.0 11.0 0.00 1.48 1.27 84 1012.9
20190124041744 24 312 6.0 12.0 0.00 1.48 1.27 84 1013.0
20190124041243 24 317 7.0 15.0 0.00 1.49 1.27 85 1012.9
20190124040742 24 320 8.0 15.0 0.00 1.49 1.27 84 1013.0
20190124040245 24 323 10.0 17.0 0.00 1.49 1.27 85 1012.9
20190124035743 25 319 10.0 17.0 0.00 1.50 1.27 85 1012.8
20190124035243 25 315 7.0 13.0 0.00 1.50 1.27 85 1012.7
20190124034745 25 317 6.0 13.0 0.00 1.50 1.27 86 1012.7
20190124034243 25 309 5.0 13.0 0.00 1.51 1.27 86 1012.5
20190124033245 24 306 3.0 9.0 0.00 1.52 1.27 86 1012.5
20190124032743 24 305 4.0 12.0 0.00 1.52 1.27 85 1012.5
20190124032243 24 305 5.0 12.0 0.00 1.53 1.27 85 1012.6
20190124031745 25 297 5.0 13.0 0.00 1.53 1.27 85 1012.5
20190124031243 25 301 5.0 13.0 0.00 1.54 1.27 85 1012.4
20190124030743 25 303 4.0 10.0 0.00 1.55 1.27 86 1012.5
20190124030244 25 306 6.0 13.0 0.00 1.56 1.27 85 1012.5
20190124025743 25 312 7.0 16.0 0.00 1.56 1.27 85 1012.5
20190124025242 25 311 7.0 16.0 0.00 1.57 1.27 85 1012.5
20190124024745 25 308 7.0 15.0 0.00 1.57 1.27 85 1012.4
20190124024243 25 311 7.0 13.0 0.00 1.58 1.27 85 1012.7
20190124023743 26 318 7.0 14.0 0.00 1.58 1.27 86 1012.7
20190124023245 26 315 6.0 14.0 0.00 1.59 1.27 86 1012.7
20190124022743 26 315 7.0 15.0 0.00 1.59 1.27 85 1012.7
20190124022248 26 316 8.0 15.0 0.00 1.59 1.27 85 1012.8
20190124021744 26 313 7.0 15.0 0.00 1.60 1.27 85 1012.8
20190124021243 26 310 7.0 15.0 0.00 1.60 1.27 85 1012.7
20190124020743 26 307 7.0 14.0 0.00 1.60 1.27 85 1012.5
20190124020244 26 306 6.0 14.0 0.00 1.60 1.27 85 1012.6
20190124015743 26 307 5.0 10.0 0.00 1.60 1.27 87 1012.7
20190124015242 26 310 4.0 11.0 0.00 1.60 1.27 87 1012.8
20190124014744 26 316 6.0 14.0 0.00 1.60 1.27 86 1012.9
20190124014242 26 319 7.0 16.0 0.00 1.60 1.27 87 1012.9
20190124013742 26 317 7.0 16.0 0.00 1.60 1.27 87 1012.5
20190124013245 26 319 8.0 15.0 0.00 1.60 1.27 87 1012.6
20190124012743 26 321 8.0 15.0 0.00 1.60 1.27 87 1012.4
20190124012243 26 321 9.0 18.0 0.00 1.60 1.27 87 1012.2
20190124011744 26 320 9.0 18.0 0.00 1.60 1.27 87 1012.1
20190124011243 26 319 8.0 15.0 0.00 1.60 1.27 87 1012.2
20190124010743 26 316 6.0 15.0 0.00 1.60 1.27 87 1012.5
20190124010245 26 310 5.0 13.0 0.00 1.60 1.27 87 1012.5
20190124005743 26 307 4.0 9.0 0.00 1.60 1.27 87 1012.5
20190124005245 26 305 4.0 11.0 0.00 1.60 1.27 88 1012.4
20190124004744 26 304 4.0 11.0 0.00 1.60 1.27 88 1012.4
20190124004243 26 310 5.0 10.0 0.00 1.60 1.27 87 1012.5
20190124003743 26 311 5.0 10.0 0.00 1.60 1.27 88 1012.3
20190124003244 26 306 4.0 9.0 0.00 1.60 1.27 88 1012.3
20190124002743 26 304 4.0 9.0 0.00 1.60 1.27 88 1012.3
20190124002243 26 298 3.0 9.0 0.00 1.60 1.27 88 1012.0
20190124001744 26 306 3.0 8.0 0.00 1.60 1.27 88 1011.9
20190124001243 26 308 3.0 10.0 0.00 1.60 1.27 88 1012.0
20190124000742 26 295 3.0 10.0 0.00 1.60 1.27 88 1011.9
20190124000245 26 293 4.0 12.0 0.00 1.60 1.27 88 1012.0
20190123235742 26 302 5.0 12.0 0.00 1.60 1.27 87 1012.1
20190123235243 26 305 5.0 13.0 0.00 1.60 1.27 88 1011.6
20190123234744 27 306 4.0 13.0 0.00 1.60 1.27 88 1011.7
20190123234243 27 303 3.0 8.0 0.00 1.60 1.27 88 1011.2
20190123233743 27 298 3.0 8.0 0.00 1.60 1.27 88 1011.2
20190123233244 27 316 5.0 12.0 0.00 1.60 1.27 88 1011.2
20190123232743 27 325 7.0 14.0 0.00 1.60 1.27 88 1011.4
20190123232243 27 327 8.0 14.0 0.00 1.60 1.27 88 1011.5
20190123231744 27 322 7.0 13.0 0.00 1.60 1.27 88 1011.1
20190123231242 27 312 7.0 13.0 0.00 1.60 1.27 87 1011.6
20190123230742 27 307 6.0 13.0 0.00 1.60 1.27 88 1011.3
20190123230245 27 300 4.0 13.0 0.00 1.60 1.27 88 1011.3
20190123225743 27 303 4.0 10.0 0.00 1.60 1.27 88 1012.1
20190123225243 27 304 4.0 9.0 0.00 1.60 1.27 88 1011.2
20190123224747 27 306 4.0 11.0 0.00 1.60 1.27 88 1010.9
20190123224243 27 311 4.0 11.0 0.00 1.60 1.27 88 1010.7
20190123223743 27 311 5.0 11.0 0.00 1.60 1.27 88 1010.6
20190123223244 27 316 6.0 11.0 0.00 1.60 1.27 88 1010.3
20190123222743 27 316 6.0 13.0 0.00 1.60 1.27 88 1010.2
20190123222243 27 309 5.0 13.0 0.00 1.60 1.27 88 1009.9
20190123221744 27 307 4.0 10.0 0.00 1.60 1.27 88 1010.4
20190123221243 27 308 3.0 9.0 0.00 1.60 1.27 89 1010.5
20190123220742 27 296 3.0 9.0 0.00 1.60 1.27 89 1010.9
20190123220245 27 295 3.0 11.0 0.00 1.60 1.27 89 1011.0
20190123215742 27 296 4.0 11.0 0.00 1.60 1.27 89 1010.3
20190123215242 27 291 4.0 11.0 0.00 1.60 1.27 88 1010.7
20190123214745 27 282 4.0 12.0 0.00 1.60 1.27 89 1010.7
20190123214242 28 285 3.0 12.0 0.00 1.60 1.27 89 1010.5
20190123213742 28 298 3.0 11.0 0.00 1.60 1.27 89 1010.0
20190123213244 28 302 3.0 8.0 0.00 1.60 1.27 89 1009.8
20190123212743 28 301 3.0 9.0 0.00 1.60 1.27 89 1009.6
20190123212242 28 304 3.0 13.0 0.00 1.60 1.27 90 1009.6
20190123211744 28 295 4.0 13.0 0.00 1.60 1.27 89 1009.8
20190123211243 28 287 4.0 17.0 0.00 1.60 1.27 89 1009.9
20190123210742 28 299 5.0 17.0 0.00 1.60 1.27 89 1009.9
20190123210245 28 301 4.0 13.0 0.00 1.60 1.27 89 1009.8
20190123205742 28 307 4.0 10.0 0.00 1.60 1.27 90 1009.8
20190123205243 28 312 6.0 14.0 0.00 1.60 1.27 89 1009.9
20190123204243 28 308 6.0 14.0 0.00 1.60 1.27 89 1010.1
20190123203742 28 309 7.0 14.0 0.00 1.60 1.27 89 1009.9
20190123203245 28 306 7.0 14.0 0.00 1.60 1.27 89 1010.0
20190123202742 28 308 8.0 14.0 0.00 1.60 1.27 89 1010.0
20190123202242 28 305 7.0 14.0 0.00 1.60 1.27 89 1009.9
20190123201744 28 304 6.0 12.0 0.00 1.60 1.27 89 1010.0
20190123201242 28 308 5.0 12.0 0.00 1.60 1.27 89 1009.8
20190123200743 28 305 5.0 12.0 0.00 1.60 1.27 89 1009.9
20190123200244 29 302 5.0 12.0 0.00 1.60 1.27 89 1010.0
20190123195742 29 305 6.0 12.0 0.00 1.60 1.27 89 1009.7
20190123195242 29 304 5.0 11.0 0.00 1.60 1.27 89 1009.8
20190123194744 29 303 4.0 10.0 0.00 1.60 1.27 90 1010.0
20190123194242 29 308 5.0 12.0 0.00 1.60 1.27 90 1009.9
20190123193743 29 304 6.0 12.0 0.00 1.60 1.27 89 1010.0
20190123193244 29 297 5.0 10.0 0.00 1.60 1.27 90 1010.1
20190123192743 29 293 4.0 10.0 0.00 1.60 1.27 90 1010.0
20190123192243 29 282 4.0 11.0 0.00 1.60 1.27 90 1009.8
20190123191744 29 279 4.0 11.0 0.00 1.60 1.27 90 1010.0
20190123191243 29 283 4.0 11.0 0.00 1.60 1.27 90 1010.0
20190123190742 29 284 4.0 9.0 0.00 1.60 1.27 90 1010.0
20190123190245 29 280 4.0 10.0 0.00 1.60 1.27 90 1010.1
20190123185742 29 279 5.0 10.0 0.00 1.60 1.27 90 1010.0
20190123185242 29 284 5.0 12.0 0.00 1.60 1.27 90 1010.0
20190123184744 29 290 4.0 12.0 0.00 1.60 1.27 90 1010.2
20190123184243 29 288 4.0 12.0 0.00 1.60 1.27 90 1009.9
20190123183743 29 284 4.0 12.0 0.00 1.60 1.27 90 1009.7
20190123183244 29 279 5.0 12.0 0.00 1.60 1.27 90 1009.7
20190123182742 29 280 5.0 12.0 0.00 1.60 1.27 89 1009.7
20190123182242 29 286 5.0 12.0 0.00 1.60 1.27 89 1009.8
20190123181744 29 288 5.0 14.0 0.00 1.60 1.27 90 1009.6
20190123181242 30 289 5.0 14.0 0.00 1.60 1.27 90 1009.6
20190123180742 30 296 5.0 13.0 0.00 1.60 1.27 90 1009.8
20190123180245 30 298 6.0 13.0 0.00 1.60 1.27 90 1010.0
20190123175743 30 299 6.0 13.0 0.00 1.60 1.27 90 1010.0
20190123175242 30 301 4.0 12.0 0.00 1.60 1.27 91 1010.1
20190123174744 30 291 4.0 12.0 0.00 1.60 1.27 91 1010.2
20190123174242 30 285 5.0 15.0 0.00 1.60 1.27 91 1010.2
20190123173742 30 284 5.0 16.0 0.00 1.60 1.27 91 1010.1
20190123173244 31 278 6.0 16.0 0.00 1.60 1.27 91 1010.3
20190123172743 31 283 6.0 15.0 0.00 1.60 1.27 91 1010.4
20190123172243 31 293 6.0 15.0 0.00 1.60 1.27 91 1010.4
20190123171744 31 283 5.0 13.0 0.00 1.60 1.27 91 1010.5
20190123171243 31 278 5.0 16.0 0.00 1.60 1.27 91 1010.5
20190123170742 31 275 5.0 16.0 0.00 1.60 1.27 91 1010.4
20190123170244 31 279 4.0 12.0 0.00 1.60 1.27 92 1010.4
20190123165743 31 289 5.0 12.0 0.00 1.60 1.27 92 1010.2
20190123165243 32 286 6.0 14.0 0.00 1.60 1.27 92 1010.4
20190123164744 32 282 5.0 14.0 0.00 1.60 1.27 92 1010.2
20190123164243 32 279 3.0 13.0 0.00 1.60 1.27 92 1010.2
20190123163742 32 274 4.0 13.0 0.00 1.60 1.27 92 1010.2
20190123163244 32 269 5.0 15.0 0.00 1.60 1.27 92 1010.2
20190123162743 32 274 5.0 15.0 0.00 1.60 1.27 92 1010.0
20190123162242 32 284 5.0 14.0 0.01 1.60 1.27 93 1009.9
20190123161745 32 269 5.0 13.0 0.01 1.60 1.27 93 1010.2
20190123161242 32 257 6.0 12.0 0.01 1.60 1.27 92 1010.2
20190123160743 32 259 6.0 14.0 0.01 1.60 1.27 92 1009.9
20190123160244 32 260 7.0 15.0 0.01 1.60 1.27 93 1010.0
20190123155743 32 258 7.0 15.0 0.01 1.60 1.27 93 1009.8
20190123155243 33 255 6.0 14.0 0.01 1.60 1.27 93 1009.7
20190123154744 33 256 6.0 12.0 0.01 1.60 1.27 93 1009.6
20190123154242 33 262 7.0 15.0 0.01 1.60 1.27 93 1009.7
20190123153743 33 263 7.0 15.0 0.02 1.60 1.27 94 1009.4
20190123153244 34 259 6.0 13.0 0.02 1.60 1.27 94 1009.3
20190123152742 34 257 6.0 13.0 0.03 1.60 1.27 94 1009.2
20190123152243 34 260 6.0 14.0 0.02 1.59 1.26 94 1009.1
20190123151744 34 260 6.0 14.0 0.02 1.59 1.26 94 1009.0
20190123151242 34 259 5.0 14.0 0.02 1.59 1.26 94 1009.1
20190123150743 34 257 5.0 13.0 0.02 1.59 1.26 94 1009.1
20190123150244 34 256 5.0 13.0 0.02 1.59 1.26 94 1009.1
20190123145742 34 258 4.0 13.0 0.02 1.59 1.26 94 1009.0
20190123145242 34 258 3.0 10.0 0.02 1.59 1.26 94 1009.0
20190123144744 34 257 4.0 12.0 0.02 1.59 1.26 94 1009.0
20190123144243 35 256 5.0 12.0 0.02 1.59 1.26 94 1009.0
20190123143742 35 257 6.0 13.0 0.01 1.58 1.25 94 1008.8
20190123143244 35 256 7.0 16.0 0.02 1.58 1.25 94 1008.8
20190123142743 35 257 6.0 16.0 0.01 1.57 1.24 94 1008.6
20190123142242 35 256 6.0 14.0 0.02 1.57 1.24 94 1008.3
20190123141745 35 257 7.0 15.0 0.03 1.57 1.24 94 1008.4
20190123141242 36 260 8.0 17.0 0.04 1.57 1.24 94 1008.3
20190123140742 36 261 7.0 18.0 0.06 1.57 1.24 94 1007.9
20190123140244 36 264 6.0 18.0 0.06 1.57 1.24 94 1007.8
20190123135742 37 263 4.0 16.0 0.07 1.57 1.24 94 1007.5
20190123135242 38 257 5.0 16.0 0.07 1.57 1.24 94 1007.4
20190123134743 38 260 5.0 16.0 0.08 1.57 1.24 94 1007.1
20190123134242 40 263 6.0 18.0 0.09 1.57 1.24 94 1007.2
20190123133742 40 264 8.0 18.0 0.09 1.57 1.24 93 1006.9
20190123133244 42 259 10.0 20.0 0.09 1.56 1.23 93 1007.0
20190123132743 44 242 9.0 20.0 0.10 1.56 1.23 92 1006.9
20190123132242 49 212 7.0 20.0 0.08 1.54 1.21 95 1006.5
20190123131744 50 202 8.0 13.0 0.07 1.53 1.20 95 1005.9
20190123131242 50 202 10.0 17.0 0.07 1.52 1.19 95 1005.9
20190123130742 50 202 10.0 18.0 0.06 1.51 1.18 95 1006.0
20190123130244 50 202 11.0 19.0 0.07 1.51 1.18 95 1005.5
20190123125742 50 200 12.0 19.0 0.06 1.50 1.17 95 1005.5
20190123125242 50 197 11.0 17.0 0.06 1.50 1.17 95 1005.5
20190123124744 50 194 10.0 17.0 0.06 1.49 1.16 95 1005.5
20190123124242 50 194 10.0 19.0 0.05 1.48 1.15 95 1005.4
20190123123744 50 189 12.0 21.0 0.05 1.48 1.15 95 1005.4
20190123123244 50 186 13.0 21.0 0.04 1.47 1.14 95 1005.5
20190123122742 50 189 12.0 19.0 0.04 1.46 1.13 95 1005.4
20190123122242 50 191 11.0 17.0 0.04 1.46 1.13 95 1005.5